Airfield :
LOGIN :

Register | Disclaimer

   EN    FR    IT 

 










Legend :    VFR   Marginal VFR   IFR   Intensive IFR   Very Intensive IFR
Visi :
Ceiling :
>= 8 km
>= 3000ft
5 to 8 km
1000 to 3000 ft
1500m to 5 km
500 to 1000 ft
800 to 1500m
200 to 500 ft
< 800m
< 200 ft
Symbols :   Thunderstorms  Fog  Heavy snow  Heavy precipitations  Wind > 20 kt
SIGMETs :     Misc.  Thunderstorms  Icing  Turbulence  Mountain Waves  Volcanic Ashes







- Airport Elevation : 325 ft
- IATA code : POX
- Download approach charts


LFPT - Pontoise

CURRENT METAR :
  • 211130Z AUTO 24005KT 200V300 9999 BKN018 OVC049 21/16 Q1022

EXPIRED METARs :
  • 211100Z AUTO 21005KT 170V240 9999 BKN017 OVC050 20/16 Q1022
  • 211030Z AUTO 24005KT 200V270 9999 BKN017 OVC052 20/16 Q1022
  • 211000Z AUTO 22006KT 190V250 9999 OVC015 19/15 Q1022
  • 210930Z AUTO 23005KT 200V260 9999 OVC014 18/15 Q1023
  • 210900Z AUTO 23007KT 9999 OVC014 18/14 Q1023

TAF N/A
ATIS : +33 1 30 30 52 08
No reported NOTAMs for that airfield.



MET'MAP, your aeronautical weather chart ! - Copyright ORBIFLY December 2007 - Disclaimer

ORBIFLY MET'MAP TEAM :

Programming & Development : Alexandra Zaïnal
Concept & Development : Baudouin d'Aumeries
Co-Development & Prog : Marc-Olivier Méhu
Technical & hardware support : Manuel Goepfert

Contact : metmap@orbifly.com




SOURCES & CREDITS :

   NOAA